Accueil
METAR-TAF:

METAR-TAF

Aéroports :

Hartness State Airport

Springfield, Vermont, États-Unis

latitude: 43-20-33N, longitude: 072-31-18W, altitude: 175 m

Observation

Le bulletin a été fait il y a 1 heure et 6 minutes, à 23:54 UTC
Vent 6 kt de sud/sud-est
Température 24°C
Humidité 61%
Pression 1023 hPa
Visibilité: 16.1 km
Nuages fragmentés à une hauteur de 5000 ft

METAR: KVSF 152354Z AUTO 15006KT 10SM BKN050 24/16 A3022 RMK AO2 SLP230 T02440161 10272 20244 53008

Heure: 21:00 (01:00 UTC)


TAF: absent

Observations et prévisions météorologiques de plus de 4000 aéroports (messages METAR et TAF).

Les stations disponibles sont représentées par des disques jaunes et rouges sur la carte.

Passer la souris dessus pour voir le nom de la station.

Cliquer dessus pour voir les observations et prévisions météorologiques.

Pour changer de carte: cliquez sur les boutons verts avec une croix noire pour zoomer, sur le bouton vert avec un tiret pour effectuer un zoom arrière, ou sur les flèches vertes pour les cartes adjacentes.


METAR-TAF: